Regional Weather Roundup
Issued by NWS

Home | Current Version | Previous Version | Graphics & Text | Print | Product List | Glossary On
Versions: 1 2 3 4 5 6 7 8 9 10 11 12 13 14 15 16 17 18 19 20 21 22 23 24 25 26 27 28 29
000
ASUS45 KBOI 291310
RWRID

IDAHO REGIONAL WEATHER ROUNDUP
NATIONAL WEATHER SERVICE BOISE ID
700 AM MDT FRI APR 29 2016

NOTE: "FAIR" INDICATES FEW OR NO CLOUDS BELOW 12000 FEET
WITH NO SIGNIFICANT WEATHER AND/OR OBSTRUCTIONS TO VISIBILITY

IDZ012-014-291400-
SOUTHWEST IDAHO


CITY           SKY/WX    TMP DP  RH WIND       PRES   REMARKS
BOISE          CLOUDY    48  40  73 NW10      29.90S
CALDWELL       MOCLDY    43  37  79 W9        29.92S
MOUNTAIN HOME  CLOUDY    47  38  71 W10       29.89F
$$

IDZ016-017-291400-
SOUTHCENTRAL IDAHO


CITY           SKY/WX    TMP DP  RH WIND       PRES   REMARKS
BURLEY         CLOUDY    43  38  82 W9        29.87S
JEROME         PTCLDY    37  37 100 SW5       29.89R FOG     WCI  33
TWIN FALLS     PTCLDY    41  35  79 SW13      29.89R
$$

IDZ019>023-291400-
SOUTHEAST IDAHO


CITY           SKY/WX    TMP DP  RH WIND       PRES   REMARKS
IDAHO FALLS    CLOUDY    40  30  67 E6        29.90R
POCATELLO      CLOUDY    40  35  83 S6        29.88R
REXBURG        CLOUDY    40  29  64 CALM      29.90R
$$

IDZ006-010-011-018-031-032-291400-
CENTRAL IDAHO MOUNTAINS


CITY           SKY/WX    TMP DP  RH WIND       PRES   REMARKS
MCCALL         LGT RAIN  38  35  89 CALM      29.89S
HAILEY         CLOUDY    37  36  93 W7        29.90S WCI  32
STANLEY          N/A     33  30  88 CALM      29.89F
SALMON         CLOUDY    37  34  87 CALM      29.91S
CHALLIS        LGT RAIN  37  32  82 N5        29.88S WCI  33
$$

IDZ002-004-006-007-026-291400-
NORTHERN IDAHO


CITY           SKY/WX    TMP DP  RH WIND       PRES   REMARKS
LEWISTON       LGT RAIN  48  46  93 CALM      29.95S
LOWELL           N/A     46  43  89 CALM      29.96S
COEUR D`ALENE  CLOUDY    48  37  66 E7        29.92S
MULLAN PASS    CLOUDY    30  24  78 CALM      29.90S
$$




USA.gov is the U.S. government's official web portal to all federal, state and local government web resources and services.